Content
SEND FEEDBACK

Daily
Averages
Monthly
Summary
Argentina

JUJUY, ARGENTINA


Home > South America > Argentina
Elevation: 4049 feet     Latitude: 24 14S     Longitude: 065 16W

WEATHER
 
SELECT A DAY
Number of Records: 165,722;   Date Range: 6/30/96 - 9/30/14
 
SHARE

PRINT THIS DATA

[ ← Previous Day ]
WEATHER ALMANAC - FEBRUARY 13, 2013
[ Next Day → ]
[ °C ]   °F
Weather ElementAverageHighLow
Temperature79.2 °F95 °F (3:00 pm)66.2 °F (6:00 am)
Dewpoint62.4 °F67 °F (9:00 pm)59 °F (4:00 am)
Humidity58 %78 % (1:00 am)32 % (4:00 pm)
Barometer29.75 in29.80 in (8:00 am)29.68 in (5:00 pm)
Wind Speed5.6 mph9.2 mph (5:00 am)
Weather ElementAverage
Visibility6.7 mi
Wind DirectionSSW (200.4 °)

Weather ElementTotal
Precipitation---
Cooling Degree Days15.6 (Base 65)
Growing Degree Days30.6 (Base 50)
Averaged from 26 records on February 13, 2013
WEATHER CONDITIONS BREAKOUT
WIND DIRECTION BREAKOUT
WEATHER BY HOUR - FEBRUARY 13, 2013
[ °C ]   °F
Local TimeTemperatureDewpointHumidityBarometerVisibilityWind DirectionWind SpeedGust SpeedPrecipitationEventsConditions
1:00 AM68.0 °F60.8 °F78 %29.77 inNW (320°)6.9 mphClear
2:00 AM68.0 °F60.8 °F78 %29.74 inNW (320°)6.9 mphClear
3:00 AM69.0 °F60.0 °F66 %7.0 miWNW (290°)6.9 mph
3:00 AM68.0 °F60.8 °F78 %29.74 inWNW (290°)6.9 mphClear
4:00 AM68.0 °F59.0 °F73 %29.74 inWNW (290°)8.1 mphClear
5:00 AM68.0 °F59.0 °F73 %29.74 inNW (320°)9.2 mphClear
6:00 AM66.2 °F59.0 °F78 %29.77 inNW (320°)8.1 mphClear
7:00 AM66.2 °F59.0 °F78 %29.77 inWNW (290°)9.2 mphClear
8:00 AM66.2 °F59.0 °F78 %29.80 in6.2 miWNW (290°)4.6 mphPartly Cloudy
9:00 AM73.0 °F61.0 °F58 %9.0 miNW (320°)3.5 mph
9:00 AM73.4 °F60.8 °F65 %29.80 inNW (320°)3.5 mphClear
10:00 AM78.8 °F62.6 °F57 %29.80 inWNW (290°)2.3 mphClear
11:00 AM84.2 °F64.4 °F51 %29.80 in6.2 miSE (140°)2.3 mphPartly Cloudy
12:00 PM87.8 °F64.4 °F46 %29.80 in6.2 miCalmPartly Cloudy
1:00 PM89.6 °F62.6 °F40 %29.77 in6.2 miSE (140°)8.1 mphScattered Clouds
2:00 PM93.2 °F64.4 °F38 %29.77 in6.2 miNE (50°)5.8 mphPartly Cloudy
3:00 PM95.0 °F66.2 °F39 %29.74 in6.2 miNE (50°)6.9 mphPartly Cloudy
4:00 PM95.0 °F60.8 °F32 %29.71 in6.2 miEast (90°)4.6 mphPartly Cloudy
5:00 PM95.0 °F60.8 °F32 %29.68 in6.2 miNE (50°)9.2 mphPartly Cloudy
6:00 PM91.4 °F64.4 °F41 %29.68 in6.2 miEast (90°)9.2 mphPartly Cloudy
7:00 PM91.4 °F66.2 °F43 %29.68 in6.2 miNE (50°)6.9 mphPartly Cloudy
8:00 PM86.0 °F64.4 °F48 %29.71 in6.2 miNE (50°)2.3 mphPartly Cloudy
9:00 PM82.0 °F67.0 °F52 %9.0 miCalmScattered Clouds
9:00 PM80.6 °F66.2 °F61 %29.74 inCalmPartly Cloudy
10:00 PM78.8 °F64.4 °F61 %29.77 inNW (320°)6.9 mphClear
11:00 PM77.0 °F64.4 °F65 %29.80 inNW (320°)6.9 mphClear
Hourly data recorded from SASJ, located miles away from Jujuy, Argentina







STORIES FROM OUR PARTNERS